Weather reports worldwide

Advertisment
Pershore college of horticulture, United Kingdom (99059): temperature & dewpoint: 16.09.2018 14:00:00 - 22.09.2018 14:00:00 (BST)Pershore college of horticulture, United Kingdom (99059): temperature -20cm & temperature -100cm: 16.09.2018 14:00:00 - 22.09.2018 14:00:00 (BST)Pershore college of horticulture, United Kingdom (99059): precipitation: 16.09.2018 14:00:00 - 22.09.2018 14:00:00 (BST)
Date & Time tt [°C] td [°C] tt -20cm [°C] tt -100cm [°C] rr [mm]
22.09.2018 14:00:00 11,3 9,4 - - 0,4
22.09.2018 13:00:00 10,9 8,8 - - 0,6
22.09.2018 12:00:00 11,6 10,0 - - 0,4
22.09.2018 11:00:00 11,6 9,8 - - 0,2
22.09.2018 10:00:00 11,8 9,8 15,0 16,2 0,0
22.09.2018 09:00:00 11,0 9,0 - - 0,0
22.09.2018 08:00:00 10,6 8,8 - - 0,0
22.09.2018 07:00:00 10,5 8,7 - - 0,0
22.09.2018 06:00:00 10,7 8,1 - - 0,0
22.09.2018 05:00:00 10,4 8,0 - - 0,0
22.09.2018 04:00:00 10,3 8,2 - - 0,0
22.09.2018 03:00:00 10,4 8,1 - - 0,0
22.09.2018 02:00:00 10,6 7,9 - - 0,0
22.09.2018 01:00:00 10,4 7,7 - - 0,0
22.09.2018 00:00:00 10,3 7,5 - - 0,0
21.09.2018 23:00:00 11,0 7,6 - - 0,0
21.09.2018 22:00:00 10,8 7,2 - - 0,0
21.09.2018 21:00:00 12,2 6,9 - - 0,0
21.09.2018 20:00:00 12,2 7,7 - - 0,2
21.09.2018 19:00:00 13,5 6,9 - - 0,0
21.09.2018 18:00:00 14,6 6,4 - - 0,0
21.09.2018 17:00:00 14,7 6,2 - - 0,0
21.09.2018 16:00:00 14,9 5,9 - - 0,0
21.09.2018 15:00:00 14,8 6,3 - - 0,0
21.09.2018 14:00:00 15,4 7,2 - - 0,0
21.09.2018 13:00:00 13,7 7,3 - - 0,0
21.09.2018 12:00:00 12,4 4,5 - - 0,0
21.09.2018 11:00:00 12,7 5,3 - - 0,0
21.09.2018 10:00:00 12,6 5,5 15,7 16,2 0,0
21.09.2018 09:00:00 11,5 5,7 - - 0,0
21.09.2018 08:00:00 9,4 5,6 - - 0,0
21.09.2018 07:00:00 8,8 5,7 - - 0,0
21.09.2018 06:00:00 9,2 5,8 - - 0,0
21.09.2018 05:00:00 10,1 6,1 - - 0,0
21.09.2018 04:00:00 10,4 6,7 - - 0,0
21.09.2018 03:00:00 11,8 8,0 - - 0,0
21.09.2018 02:00:00 13,8 10,4 - - 0,0
21.09.2018 01:00:00 15,4 12,7 - - 0,0
21.09.2018 00:00:00 16,8 16,1 - - 3,2
20.09.2018 23:00:00 17,6 15,9 - - 0,8
20.09.2018 22:00:00 17,3 15,9 - - 1,0
20.09.2018 21:00:00 17,6 15,7 - - 0,4
20.09.2018 20:00:00 18,4 14,9 - - 0,0
20.09.2018 19:00:00 18,9 14,8 - - 0,0
20.09.2018 18:00:00 18,6 15,2 - - 0,0
20.09.2018 17:00:00 18,9 15,1 - - 0,0
20.09.2018 16:00:00 18,7 15,1 - - 0,0
20.09.2018 15:00:00 19,0 15,9 - - 0,0
20.09.2018 14:00:00 17,8 16,3 - - 0,0
20.09.2018 13:00:00 16,7 16,3 - - 0,0
20.09.2018 12:00:00 13,6 13,2 - - 0,6
20.09.2018 11:00:00 13,2 12,8 - - 2,8
20.09.2018 10:00:00 13,2 12,6 16,2 16,4 0,8
20.09.2018 09:00:00 12,7 12,5 - - 0,2
20.09.2018 08:00:00 12,0 11,9 - - 0,6
20.09.2018 07:00:00 11,7 11,5 - - 2,0
20.09.2018 06:00:00 11,7 11,5 - - 2,4
20.09.2018 05:00:00 11,7 11,4 - - 1,0
20.09.2018 04:00:00 11,6 11,3 - - 0,6
20.09.2018 03:00:00 11,8 11,3 - - 2,2
20.09.2018 02:00:00 12,3 11,0 - - 0,6
20.09.2018 01:00:00 12,9 10,9 - - 0,0
20.09.2018 00:00:00 13,3 9,9 - - 0,0
19.09.2018 23:00:00 13,4 10,0 - - 0,0
19.09.2018 22:00:00 12,9 10,0 - - 0,2
19.09.2018 21:00:00 14,3 7,9 - - 0,0
19.09.2018 20:00:00 15,3 6,0 - - 0,0
19.09.2018 19:00:00 16,4 7,7 - - 0,0
19.09.2018 18:00:00 17,4 9,8 - - 0,0
19.09.2018 17:00:00 18,5 12,3 - - 0,0
19.09.2018 16:00:00 19,8 13,6 - - 0,0
19.09.2018 15:00:00 20,1 13,4 - - 0,0
19.09.2018 14:00:00 20,2 12,2 - - 0,0
19.09.2018 13:00:00 22,0 11,5 - - 0,0
19.09.2018 12:00:00 21,7 12,6 - - 0,0
19.09.2018 11:00:00 20,4 13,1 - - 0,0
19.09.2018 10:00:00 19,3 13,8 16,7 16,4 0,0
19.09.2018 09:00:00 18,0 13,8 - - 0,0
19.09.2018 08:00:00 16,4 13,1 - - 0,0
19.09.2018 07:00:00 16,1 13,5 - - 0,0
19.09.2018 06:00:00 16,0 13,7 - - 0,0
19.09.2018 05:00:00 15,4 13,4 - - 0,0
19.09.2018 04:00:00 15,5 13,5 - - 0,0
19.09.2018 03:00:00 15,9 13,9 - - 0,0
19.09.2018 02:00:00 16,6 14,7 - - 0,0
19.09.2018 01:00:00 16,3 15,0 - - 0,2
19.09.2018 00:00:00 18,0 13,7 - - 0,0
18.09.2018 23:00:00 18,0 14,0 - - 0,0
18.09.2018 22:00:00 18,4 13,9 - - 0,0
18.09.2018 21:00:00 18,5 13,8 - - 0,0
18.09.2018 20:00:00 18,6 14,1 - - 0,0
18.09.2018 19:00:00 18,6 14,2 - - 0,0
18.09.2018 18:00:00 19,0 14,5 - - 0,0
18.09.2018 17:00:00 20,1 14,7 - - 0,0
18.09.2018 16:00:00 19,4 14,8 - - 0,0
18.09.2018 15:00:00 18,9 14,7 - - 0,0
18.09.2018 14:00:00 19,3 14,0 - - 0,0
18.09.2018 13:00:00 19,8 13,2 - - 0,0
18.09.2018 12:00:00 20,7 12,9 - - 0,0
18.09.2018 11:00:00 18,8 12,4 - - 0,0
18.09.2018 10:00:00 17,0 14,1 16,7 16,2 0,0
18.09.2018 09:00:00 17,0 14,4 - - 0,0
18.09.2018 08:00:00 17,1 15,6 - - 0,0
18.09.2018 07:00:00 17,8 15,1 - - 0,0
18.09.2018 06:00:00 18,7 14,8 - - 0,0
18.09.2018 05:00:00 19,1 15,1 - - 0,0
18.09.2018 04:00:00 19,2 15,0 - - 0,0
18.09.2018 03:00:00 18,0 14,4 - - 0,0
18.09.2018 02:00:00 17,2 13,2 - - 0,0
18.09.2018 01:00:00 16,7 11,5 - - 0,0
18.09.2018 00:00:00 16,9 10,3 - - 0,0
17.09.2018 23:00:00 16,4 10,3 - - 0,0
17.09.2018 22:00:00 17,8 10,5 - - 0,0
17.09.2018 21:00:00 18,4 10,6 - - 0,0
17.09.2018 20:00:00 19,3 10,0 - - 0,0
17.09.2018 19:00:00 20,2 9,7 - - 0,0
17.09.2018 18:00:00 21,9 10,8 - - 0,0
17.09.2018 17:00:00 23,0 14,3 - - 0,0
17.09.2018 16:00:00 22,5 15,5 - - 0,0
17.09.2018 15:00:00 21,4 16,0 - - 0,0
17.09.2018 14:00:00 20,2 15,5 - - 0,0
17.09.2018 13:00:00 20,7 16,0 - - 0,0
17.09.2018 12:00:00 20,6 16,4 - - 0,0
17.09.2018 11:00:00 20,8 16,4 - - 0,0
17.09.2018 10:00:00 20,0 16,5 16,5 16,4 0,0
17.09.2018 09:00:00 17,9 16,4 - - 0,0
17.09.2018 08:00:00 18,1 16,4 - - 0,0
17.09.2018 07:00:00 18,0 16,3 - - 0,0
17.09.2018 06:00:00 18,0 16,5 - - 0,0
17.09.2018 05:00:00 17,9 16,6 - - 0,0
17.09.2018 04:00:00 17,6 16,6 - - 0,0
17.09.2018 03:00:00 17,3 16,5 - - 0,0
17.09.2018 02:00:00 17,2 16,7 - - 0,0
17.09.2018 01:00:00 17,1 16,7 - - 0,0
17.09.2018 00:00:00 17,2 16,5 - - 0,0
16.09.2018 23:00:00 17,2 16,2 - - 0,0
16.09.2018 22:00:00 17,5 16,4 - - 0,0
16.09.2018 21:00:00 17,7 16,5 - - 0,0
16.09.2018 20:00:00 17,7 16,3 - - 0,0
16.09.2018 19:00:00 19,2 15,9 - - 0,0
16.09.2018 18:00:00 19,7 15,5 - - 0,0
16.09.2018 17:00:00 19,6 15,4 - - 0,0
16.09.2018 16:00:00 19,3 15,0 - - 0,0
16.09.2018 15:00:00 19,5 14,8 - - 0,0
16.09.2018 14:00:00 19,6 14,6 - - 0,0

tt = temperature
td = dewpoint
tt -20cm = temperature -20cm
tt -100cm = temperature -100cm
rr = precipitation

Next stations